Location: Newark
(34.1333°N, 7.9667°W)
Time: 23:58:53
(UTC+00:00)

Envisat - Visible Passes

Search period start: 18 May 2021 00:00
Search period end: 28 May 2021 00:00
Orbit: 764 x 766 km, 98.1° (Epoch: 18 May)

Date Brightness Start Highest point End Pass type
(mag) Time Alt. Az. Time Alt. Az. Time Alt. Az.
18 May 5.9 04:41:00 10° ENE 04:43:09 13° E 04:45:17 10° ESE visible
23 May 5.7 04:53:44 10° NE 04:57:11 18° E 05:00:38 10° SE visible
26 May 5.8 04:43:04 10° ENE 04:45:38 14° E 04:48:11 10° ESE visible
